Search your local weather  

 

Hazardous Weather Conditions

Beach Hazards Statement issued December 11 at 2:22PM PST until December 15 at 12:00PM PST

Current Conditions: LOS ANGELES, CALIFORNIA

Fair


58.0 F

Last Updated on Dec 11 2019, 5:51 pm PST
Humidity: 84%
Wind Speed: S 3.5 mph
Barometer 30.15 in
Dewpoint: 53.1 F
Visibility: 10.00 mi
Precip: --
Heat Index: NA
Wind Chill: NA
Current conditions at:

Santa Monica, Santa Monica Municipal Airport, CA (KSMO)

Lat: 34.01583 Lon: -118.45139

Local Radar Image active severe weather and emergency alerts image image weather storm and storm spotter reports image weather observation monitoring service image
Local
Radar
Active
Alerts
Storm Reports Weather
Monitoring

5 Day Forecast for LOS ANGELES, CALIFORNIA (90001)

Wednesday

Partly Cloudy

High 68 °F
Wednesday
Night
Mostly Cloudy

Low 51 °F
Thursday

Partly Sunny

High 72 °F
Thursday
Night
Mostly Clear

Low 54 °F
Friday

Mostly Sunny

High 73 °F
Friday
Night
Partly Cloudy

Low 54 °F
Saturday

Partly Sunny

High 68 °F
Saturday
Night
Partly Cloudy

Low 50 °F
Sunday

Mostly Sunny

High 65 °F

Sign-up For Email & Text Message Weather Alert Notification Services



Advertise Here

Observation History for LOS ANGELES, CALIFORNIA


Time Wind
(mph)
Vis
(mi)
Weather Precip (in) Temperature (F) Relative
Humidity
Wind
Chill
(°F)
Heat
Index
(°F)
Pressure
Air Dwpt altimeter
(in)
sea level
(mb)
5:51 pm PST S 3.5 10.00 Fair -- 58.0 53.1 84% NA NA 30.15 1020.8
4:51 pm PST SW 3.5 10.00 Fair -- 59.0 54.0 83% NA NA 30.15 1020.9
3:51 pm PST W 5.8 10.00 Fair -- 61.0 53.1 75% 61 NA 30.14 1020.6
2:51 pm PST W 5.8 10.00 Fair -- 61.0 51.1 70% 61 NA 30.14 1020.6
1:51 pm PST SW 5.8 10.00 Fair -- 62.0 52.0 70% 62 NA 30.14 1020.7
12:51 pm PST SW 5.8 10.00 Fair -- 61.0 48.9 65% 61 NA 30.16 1021.3
11:51 am PST SW 5.8 10.00 Mostly Cloudy -- 62.0 48.0 60% 62 NA 30.19 1022.2
10:51 am PST S 4.6 10.00 Fair -- 60.0 46.0 60% 60 NA 30.21 1022.8
9:51 am PST S 4.6 10.00 Fair -- 60.0 43.0 53% 60 NA 30.21 1022.9
8:51 am PST N 0.0 10.00 Fair -- 55.0 46.0 72% NA NA 30.22 1023.3
7:51 am PST N 3.5 10.00 Fair -- 50.0 43.0 77% NA NA 30.21 1023.1
6:51 am PST E 4.6 10.00 Fair -- 47.0 42.1 83% 45 NA 30.20 1022.5
5:51 am PST NE 4.6 10.00 Fair -- 47.0 42.1 83% 45 NA 30.19 1022.2
4:51 am PST N 4.6 10.00 Fair -- 48.0 42.1 80% 46 NA 30.17 1021.7
3:51 am PST N 3.5 10.00 Fair -- 48.0 43.0 83% NA NA 30.18 1021.8
2:51 am PST E 3.5 10.00 Fair -- 49.0 44.1 83% NA NA 30.19 1022.1
1:51 am PST E 4.6 10.00 Fair -- 49.0 44.1 83% 47 NA 30.19 1022.3
12:51 am PST N 3.5 10.00 Fair -- 50.0 45.0 83% NA NA 30.18 1021.9
11:51 pm PST N 3.5 10.00 Fair -- 51.0 44.1 77% NA NA 30.20 1022.6
10:51 pm PST NW 3.5 10.00 Fair -- 52.0 45.0 77% NA NA 30.21 1023.0
9:51 pm PST NW 3.5 10.00 Fair -- 52.0 45.0 77% NA NA 30.21 1022.9
8:51 pm PST NW 4.6 10.00 Fair -- 54.0 46.9 77% 53 NA 30.21 1022.8
7:51 pm PST N 0.0 10.00 Fair -- 55.0 48.9 80% NA NA 30.19 1022.4
6:51 pm PST N 0.0 10.00 Fair -- 56.0 53.1 90% NA NA 30.19 1022.2

Regional Weather Observation

Los Angeles / USC Campus Downtown, CA (KCQT)

Fair
62.0 F

Burbank - Bob Hope Airport, CA (KBUR)

Fair
60.0 F

Los Angeles, Whiteman Airport, CA (KWHP)

Clear
61.0 F

El Monte, CA (KEMT)

A Few Clouds
59.0 F

Los Angeles, Los Angeles International Airport, CA (KLAX)

A Few Clouds
61.0 F

Hawthorne, Hawthorne Municipal Airport, CA (KHHR)

Fair
61.0 F

Advertise Here


Advertise Here